This is the latest recevied weather packets stored in our database for station/object KB2SKP. If no packets are shown the sender has not sent any weather packets the latest 1 day(s).
| Time | Temp. | Humidity | Pressure | Rain* | Wind** | Luminosity | Snow |
|---|---|---|---|---|---|---|---|
| 1777993046 | 23.33° C | 52% | 1009.9 hPa | 0 mm | 0.45 m/s, 183° | 58 W/m² | - |
| 1777992743 | 22.78° C | 52% | 1010 hPa | 0 mm | 0.45 m/s, 269° | 78 W/m² | - |
| 1777992440 | 22.78° C | 54% | 1010.1 hPa | 0 mm | 0 m/s | 61 W/m² | - |
| 1777992138 | 22.22° C | 53% | 1010.1 hPa | 0 mm | 1.34 m/s, 80° | 65 W/m² | - |
| 1777991835 | 22.22° C | 54% | 1010.2 hPa | 0 mm | 0.45 m/s, 187° | 69 W/m² | - |
| 1777991532 | 21.67° C | 55% | 1010 hPa | 0 mm | 0 m/s | 40 W/m² | - |
| 1777991229 | 21.67° C | 54% | 1010.1 hPa | 0 mm | 0 m/s | 35 W/m² | - |
| 1777990926 | 21.67° C | 55% | 1009.9 hPa | 0 mm | 0.45 m/s, 156° | 50 W/m² | - |
| 1777990624 | 21.67° C | 57% | 1010.2 hPa | 0 mm | 0.89 m/s, 228° | 66 W/m² | - |
| 1777990321 | 20.56° C | 56% | 1010.1 hPa | 0 mm | 0 m/s | 303 W/m² | - |
| 1777990017 | 21.11° C | 56% | 1010.1 hPa | 0 mm | 0.89 m/s, 109° | 55 W/m² | - |
| 1777989714 | 20.56° C | 57% | 1009.9 hPa | 0 mm | 0.89 m/s, 169° | 264 W/m² | - |
| 1777989410 | 20.56° C | 57% | 1010.2 hPa | 0 mm | 0.45 m/s, 165° | 92 W/m² | - |
| 1777989107 | 20° C | 58% | 1010.2 hPa | 0 mm | 1.34 m/s, 122° | 241 W/m² | - |
| 1777988803 | 20° C | 59% | 1010.1 hPa | 0 mm | 1.34 m/s, 85° | 197 W/m² | - |
| 1777988501 | 18.89° C | 60% | 1010 hPa | 0 mm | 0 m/s | 411 W/m² | - |
| 1777988197 | 20° C | 60% | 1009.9 hPa | 0 mm | 0.89 m/s, 113° | 68 W/m² | - |
| 1777987893 | 19.44° C | 61% | 1010.1 hPa | 0 mm | 0.89 m/s, 72° | 75 W/m² | - |
| 1777987589 | 19.44° C | 62% | 1010.1 hPa | 0 mm | 0.89 m/s, 206° | 90 W/m² | - |
| 1777987287 | 18.89° C | 62% | 1010.1 hPa | 0 mm | 0.45 m/s, 166° | 36 W/m² | - |
| 1777986984 | 18.89° C | 62% | 1010.4 hPa | 0 mm | 0.89 m/s, 92° | 43 W/m² | - |
| 1777986682 | 18.89° C | 61% | 1010.2 hPa | 0 mm | 1.34 m/s, 171° | 57 W/m² | - |
| 1777986380 | 19.44° C | 61% | 1010 hPa | 0 mm | 1.34 m/s, 136° | 58 W/m² | - |
| 1777986078 | 19.44° C | 62% | 1010.1 hPa | 0 mm | 0.89 m/s, 180° | 57 W/m² | - |
| 1777985774 | 18.89° C | 63% | 1010.2 hPa | 0 mm | 1.34 m/s, 154° | 47 W/m² | - |
* Rain latest hour (hover to see other rain measurements)
** Current wind speed in m/s (hover to see current wind gust speed)